Regional Weather Roundup
Issued by NWS

Home | Current Version | Previous Version | Graphics & Text | Print | Product List | Glossary On
Versions: 1 2 3 4 5 6 7 8 9 10 11 12 13 14 15 16 17 18 19 20 21 22 23 24 25 26 27 28 29 30 31 32 33 34 35 36 37 38 39 40 41 42 43 44 45 46 47 48 49 50
000
ASUS45 KBOU 242307
RWRCO

WEATHER ROUNDUP FOR COLORADO
NATIONAL WEATHER SERVICE DENVER/BOULDER CO
500 PM MDT SAT JUN 24 2017

NOTE: "FAIR" INDICATES FEW OR NO CLOUDS BELOW 12000 FEET WITH NO
SIGNIFICANT WEATHER AND/OR OBSTRUCTIONS TO VISIBILITY.

COZ001>005-013-030-031-250000-
...NORTHWEST COLORADO...

CITY           SKY/WX    TMP DP  RH WIND       PRES   REMARKS
CRAIG          FAIR      80  18  10 NW8       30.27S
HAYDEN         FAIR      77  27  15 NW13      30.28S
MEEKER         FAIR      80  23  12 N8G20     30.27F
RABBIT EARS PA FAIR      57  30  35 NW7       30.55S
STEAMBOAT SPGS FAIR      74  30  19 S6        30.29S
WALDEN         FAIR      70  25  18 NW20G25   30.38F
$$

COZ006>008-011-250000-
...WEST CENTRAL VALLEYS...

CITY           SKY/WX    TMP DP  RH WIND       PRES   REMARKS
GRAND JUNCTION FAIR      93  25   8 W14G21    30.08F
MONTROSE       FAIR      89  23   9 NW12G17   30.15F
EAGLE          MOSUNNY   82  18   9 CALM      30.23S
RIFLE          FAIR      88  21   8 N13G21    30.17S
DELTA          FAIR      95   7   4 NW8G16    30.09F
NUCLA          NOT AVBL
$$

COZ017>023-064>068-250000-
...SOUTHWEST COLORADO...

CITY           SKY/WX    TMP DP  RH WIND       PRES   REMARKS
DURANGO        FAIR      89  13   6 W22G31    30.16F
CORTEZ         FAIR      94  18   6 W16G22    30.12F
PAGOSA SPRINGS FAIR      86   3   4 SW15G28   30.24F
TELLURIDE      FAIR      76  13   9 W16       30.43F
WOLF CREEK PAS FAIR      63  28  27 SW13G26   30.65S
$$

COZ009-010-012-014-032>034-037-058>063-250000-
...CENTRAL COLORADO...

CITY           SKY/WX    TMP DP  RH WIND       PRES   REMARKS
ASPEN          FAIR      78  14   9 N20G26    30.30F
BUENA VISTA    FAIR      77  39  25 E14       30.28R
COPPER MTN     FAIR      61  23  23 NW12G22   30.62S
BERTHOUD PASS  FAIR      50  36  57 W26G37    30.65S
COTTONWOOD PAS FAIR      77  18  10 SE13G24   30.44R
GUNNISON       FAIR      79  18  10 W12G18    30.28F
KREMMLING      NOT AVBL
LEADVILLE      FAIR      69   7   9 W13G21    30.44F
MONARCH PASS   FAIR      64  18  16 W25G40    30.71F
SALIDA         FAIR      74  44  34 SE23G37   30.33R
SUNLIGHT       FAIR      61  21  21 W12G20    30.58F
WILKERSON PASS FAIR      54  39  58 NE8G20    30.59F
$$

COZ069>075-250000-
...SAN LUIS VALLEY/SANGRE DE CRISTO MOUNTAINS...

CITY           SKY/WX    TMP DP  RH WIND       PRES   REMARKS
ALAMOSA        FAIR      82  26  13 NW8       30.21F
DEL NORTE      FAIR      81  34  18 SE12      30.25S
LA VETA PASS   CLOUDY    59  46  63 N18       30.59F
SAGUACHE       FAIR      84   9   6 NW25G31   30.26S
$$

COZ035-036-038>040-250000-
...NORTHERN COLORADO FRONT RANGE...

CITY           SKY/WX    TMP DP  RH WIND       PRES   REMARKS
DENVER INTL AP PTSUNNY   74  44  34 N12       30.26F
DMNS CITY PARK   N/A     74  43  33 N9G18     30.26S
AURORA         MOSUNNY   76  46  34 N16       30.27F
FRONT RANGE AP PTSUNNY   77  45  31 N12G21    30.27S
ERIE MUNI ARPT FAIR      75  43  32 N3        30.27S
BOULDER MUN AP FAIR      72  43  35 CALM      30.28S
CENTENNIAL     PTSUNNY   73  45  36 N14       30.28F
BROOMFIELD     FAIR      73  43  33 N7        30.30S
FORT COLLINS   CLOUDY    75  46  35 VRB6      30.28S
LONGMONT       PTSUNNY   77  45  32 E5        30.28F
$$

COZ041-046-047-076>085-087-088-250000-
...PIKES PEAK/PALMER DIVIDE AND SOUTHERN FOOTHILLS...

CITY           SKY/WX    TMP DP  RH WIND       PRES   REMARKS
COLO. SPRINGS  PTSUNNY   69  45  41 CALM      30.32F
A. F. ACADEMY  FAIR      68  45  42 SE5       30.32F
SCHRIEVER AFB  FAIR      68  43  40 SE10      30.32F
CHEYENNE MTN   PTSUNNY   62  46  55 S6        30.31S
ELLICOTT       FAIR     N/A N/A N/A E6        30.30F
FALCON           N/A     69  41  36 S9        30.36S
FORT CARSON    CLOUDY    69  46  43 E5        30.29F
LIMON          FAIR      73  44  35 S12G22    30.27F
MONUMENT HILL  PTSUNNY   64  43  45 SE6       30.36F
CANON CITY     CLOUDY    73  50  43 E12       30.26S
WALSENBURG     CLOUDY    75  50  41 NE10      30.26R
TRINIDAD       CLOUDY    75  47  36 SE7       30.22F
$$

COZ042>045-048>051-090-091-250000-
...NORTHEAST COLORADO...

CITY           SKY/WX    TMP DP  RH WIND       PRES   REMARKS
GREELEY ARPT   FAIR      73  48  41 E13       30.26F
AKRON          CLOUDY    73  48  41 NE7       30.27F
BURLINGTON     FAIR      76  50  40 S6G16     30.25S
WRAY           CLOUDY    77  46  33 E12       30.25S
YUMA           FAIR      72  46  40 N7        30.25F
STERLING       FAIR      73  45  35 E7        30.25F
HOLYOKE        NOT AVBL
FORT MORGAN    PTSUNNY   74  44  34 E14       30.27S
$$

COZ086-089-092>099-250000-
...SOUTHEAST COLORADO...

CITY           SKY/WX    TMP DP  RH WIND       PRES   REMARKS
PUEBLO         CLOUDY    76  49  38 NE13      30.21F
LA JUNTA       PTSUNNY   78  48  34 SE8G20    30.19F
LAMAR          PTSUNNY   77  47  34 S13G22    30.18F
SPRINGFIELD      N/A     73  51  46 S15       30.23F
$$



USA.gov is the U.S. government's official web portal to all federal, state and local government web resources and services.